Weather History for Portland Troutdale, OR

Change the Weather History Date:

Monday, November 7, 2011

  Actual Average Record
Temperature  
Mean Temperature 47 °F 48 °F  
Max Temperature 53 °F 55 °F 68 °F (1980)
Min Temperature 41 °F 40 °F 29 °F (1993)
Degree Days  
Heating Degree Days 18 17  
Month to date heating degree days 144 115  
Cooling Degree Days 0 0  
Month to date cooling degree days 0 0  
Moisture  
Dew Point 43 °F    
Average Humidity 86    
Maximum Humidity 100    
Minimum Humidity 71    
Precipitation  
Precipitation T in 0.24 in 2.00 in (1974)
Month to date precipitation 0.69 1.58  
Year to date precipitation 29.34 34.10  
Snow  
Snow 0.00 in - - ()
Month to date snowfall 0.0  
Since 1 July snowfall 0.0  
Since 1 September snowfall 0.0  
Snow Depth 0.00 in    
Sea Level Pressure  
Sea Level Pressure 30.25 in    
Wind  
Wind Speed 3 mph (South)    
Max Wind Speed 9 mph    
Max Gust Speed 29 mph    
Visibility 9 miles    
Events Rain    
T = Trace of Precipitation, MM = Missing Value Source: NWS Daily Summary

Daily Weather History Graph

Daily Weather History Graph

Search for Another Location

Airport:

Trip Planner

Search our weather history database for the weather conditions in past years. The results will help you decide how hot, cold, wet, or windy it might be!

Date:

Astronomy

Nov. 07, 2011 Rise Set
Actual Time 6:57 AM PST 4:48 PM PST
Civil Twilight 6:25 AM PST 5:19 PM PST
Nautical Twilight 5:50 AM PST 5:55 PM PST
Astronomical Twilight 5:15 AM PST 6:29 PM PST
Moon 3:07 PM PST (11/7) 3:58 AM PST (11/7)
Length of Visible Light 10h 54m
Length of Day
9h 51m
Waxing Gibbous, 92% of the Moon is Illuminated
Nov 7
Waxing Gibbous
Nov 10
Full
Nov 18
Last Quarter
Nov 24
New
Dec 2
First Quarter

Hourly Weather History & Observations

Time (PST) Temp. Windchill Dew Point Humidity Pressure Visibility Wind Dir Wind Speed Gust Speed Precip Events Conditions
12:36 AM 44.6 °F - 41.0 °F 87% 30.20 in 10.0 mi Calm Calm - N/A   Overcast
12:53 AM 45.0 °F - 42.1 °F 90% 30.20 in 8.0 mi Calm Calm - 0.00 in Rain Light Rain
1:53 AM 45.0 °F - 43.0 °F 93% 30.21 in 10.0 mi Calm Calm - 0.00 in   Overcast
2:53 AM 45.0 °F - 43.0 °F 93% 30.21 in 10.0 mi Calm Calm - N/A   Overcast
3:53 AM 45.0 °F 43.5 °F 43.0 °F 93% 30.21 in 10.0 mi SE 3.5 mph - 0.00 in   Overcast
4:53 AM 45.0 °F - 43.0 °F 93% 30.21 in 10.0 mi Calm Calm - N/A   Overcast
5:53 AM 45.0 °F - 43.0 °F 93% 30.22 in 10.0 mi Calm Calm - N/A   Overcast
7:53 AM 45.0 °F 42.6 °F 43.0 °F 93% 30.25 in 10.0 mi ESE 4.6 mph - N/A   Overcast
9:00 AM 46.4 °F 44.3 °F 42.8 °F 87% 30.25 in 10.0 mi ESE 4.6 mph - N/A   Overcast
9:53 AM 48.0 °F - 43.0 °F 83% 30.25 in 10.0 mi ESE 4.6 mph - N/A   Overcast
10:53 AM 50.0 °F - 43.0 °F 77% 30.26 in 10.0 mi Calm Calm - N/A   Overcast
11:53 AM 50.0 °F - 43.0 °F 77% 30.26 in 10.0 mi SSW 4.6 mph - N/A   Overcast
1:25 PM 51.8 °F - 44.6 °F 76% 30.25 in 10.0 mi WSW 6.9 mph - N/A   Mostly Cloudy
1:53 PM 52.0 °F - 43.0 °F 71% 30.25 in 10.0 mi Calm Calm - N/A   Overcast
2:26 PM 51.8 °F - 42.8 °F 71% 30.24 in 10.0 mi SW 8.1 mph - N/A   Overcast
2:53 PM 52.0 °F - 43.0 °F 71% 30.25 in 10.0 mi SW 8.1 mph - N/A   Overcast
3:53 PM 52.0 °F - 44.1 °F 74% 30.25 in 10.0 mi WSW 5.8 mph - N/A   Overcast
4:14 PM 51.8 °F - 44.6 °F 76% 30.25 in 10.0 mi Calm Calm - N/A   Overcast
4:22 PM 51.8 °F - 44.6 °F 76% 30.26 in 10.0 mi West 4.6 mph - N/A   Overcast
4:53 PM 51.1 °F - 44.1 °F 77% 30.26 in 10.0 mi Calm Calm - 0.00 in   Overcast
5:32 PM 50.0 °F - 44.6 °F 82% 30.26 in 10.0 mi SW 9.2 mph - 0.00 in Rain Light Rain
6:53 PM 48.0 °F - 46.0 °F 93% 30.27 in 10.0 mi East 3.5 mph - N/A   Overcast
7:53 PM 46.9 °F - 45.0 °F 93% 30.28 in 10.0 mi Calm Calm - N/A   Overcast
8:53 PM 43.0 °F - 43.0 °F 100% 30.28 in 4.0 mi Calm Calm - N/A   Partly Cloudy
9:53 PM 42.1 °F - 42.1 °F 100% 30.29 in 4.0 mi Calm Calm - N/A   Scattered Clouds
10:00 PM 42.8 °F - 42.8 °F 100% 30.29 in 2.5 mi Calm Calm - N/A   Overcast
10:07 PM 42.8 °F - 42.8 °F 100% 30.29 in 8.0 mi Calm Calm - N/A   Overcast
10:53 PM 44.1 °F - 44.1 °F 100% 30.30 in 9.0 mi Calm Calm - N/A   Overcast
11:53 PM 44.1 °F 42.5 °F 44.1 °F 100% 30.29 in 10.0 mi ESE 3.5 mph - N/A   Overcast